Location: Agjert
(16.3986°N, 9.2864°W)
Time: 05:35:43
(UTC+00:00)

Daily predictions for brighter satellites

Satellite Brightness Start Highest point End
(mag) Time Altitude Azimuth Time Altitude Azimuth Time Altitude Azimuth
ATLAS 3B R/B 4.1 03:40:37 27° NNE 03:40:37 27° NNE 03:43:26 10° NNE
Cosmos 2263 Rocket 3.8 03:46:50 31° ENE 03:46:50 31° ENE 03:50:27 10° NE
Nadezhda 4 Rocket 4.5 04:14:05 50° N 04:14:05 50° N 04:18:37 10° N
Ariane H10+ 4.4 04:23:53 31° SSW 04:27:48 39° SSE 04:52:25 10° E
CZ-4B R/B 4.3 04:38:08 11° N 04:38:08 11° N 04:38:16 10° N
ASTRO E2 3.5 04:40:06 48° ENE 04:40:06 48° ENE 04:43:23 10° ESE
Gblst 52 Del rocket 4.0 04:38:57 71° WNW 04:39:32 81° SW 04:45:01 10° SE
Lacrosse 5 3.5 04:39:09 19° SSE 04:41:52 30° ESE 04:46:16 10° ENE
Fermi 4.1 04:45:22 64° NE 04:45:22 64° NE 04:48:56 10° ENE
PSLV R/B 3.7 04:46:08 66° SSW 04:46:08 66° SSW 04:48:56 10° ESE
STARLINK-1145 4.4 04:46:37 39° ESE 04:46:37 39° ESE 04:49:35 10° NE
GPS 2-14 Rocket1 3.1 04:46:50 57° NNE 04:46:50 57° NNE 04:50:26 10° ENE
STARLINK-1161 4.2 04:48:18 42° ESE 04:48:18 42° ESE 04:51:22 10° NE
STARLINK-1160 4.1 04:49:59 45° ESE 04:49:59 45° ESE 04:53:11 10° NE
ATLAS 5 CENTAUR R/B 4.1 04:55:30 27° WNW 04:55:30 27° WNW 04:58:26 10° NNW
SJ-6F 4.3 04:53:29 10° N 04:57:37 69° WNW 04:57:50 67° WSW
CZ-2C R/B 2.4 04:53:37 10° N 04:57:54 50° WNW 04:57:54 50° WNW
CZ-4B R/B 4.0 04:54:45 10° NNE 04:58:26 63° E 05:00:10 28° S
Cosmos 1378 3.4 05:00:18 20° S 05:02:44 64° E 05:06:25 10° NNE
Cosmos 1066 Rocket 4.2 04:59:24 24° SSW 05:02:56 63° W 05:08:44 10° N
TRAILBLAZER 4.4 04:59:52 10° NNW 05:04:22 88° WSW 05:08:52 10° SSE
FALCON 9 DEB 3.7 05:05:44 44° S 05:05:44 44° S 05:08:16 10° SSE
Cosmos 1844 Rocket 4.2 05:02:18 10° SSE 05:07:22 35° ESE 05:12:27 10° NE
CCE 1 Rocket 4.1 05:05:20 32° WNW 05:07:38 86° NNE 05:15:17 10° ESE
Spot 2 4.3 05:04:24 10° N 05:09:29 71° WNW 05:13:39 14° SSW
Cosmos 1484 Rocket 3.1 05:05:55 10° NNE 05:09:36 62° E 05:13:15 10° S
SL-16 R/B 2.2 05:04:51 10° NNW 05:10:24 59° WSW 05:15:57 10° S
ADEOS 4.3 05:09:15 10° NNW 05:13:45 30° WNW 05:14:19 30° W
STARLINK-52 3.9 05:18:50 31° SSW 05:18:50 31° SSW 05:21:00 10° SSE
CZ-4B R/B 3.1 05:14:53 10° N 05:19:21 87° WNW 05:23:53 10° SSW
Cosmos 1689 Rocket 2.0 05:16:59 10° S 05:19:57 62° WSW 05:22:55 10° NNW
OE (NEXTSAT) 4.2 05:24:29 21° NW 05:26:42 73° SW 05:30:09 10° SE
Cosmos 1437 Rocket 3.4 05:25:05 24° SW 05:26:49 36° W 05:30:35 10° NNW
Intelsat 5-3 Rocket 1.2 05:27:17 45° WNW 05:27:44 59° NNW 05:30:30 10° ENE
Cosmos 2263 Rocket 3.6 05:28:35 17° WNW 05:29:09 18° WNW 05:32:53 10° NNW
Palapa 6 Rocket 4.0 05:27:33 16° NW 05:30:11 33° N 05:34:07 10° ENE
GPS 2-12 Rocket1 3.9 05:33:06 20° WSW 05:35:11 30° SSW 05:39:05 10° SE
STARLINK-1150 4.1 05:34:08 23° W 05:35:34 32° NW 05:38:47 10° NNE
Meteor 1-15 Rocket 4.2 05:30:05 10° N 05:35:43 75° W 05:41:27 10° S
Cosmos 1818 3.6 05:32:35 10° NNW 05:38:00 89° ENE 05:43:24 10° SSE
ATLAS 5 CENTAUR R/B 3.9 05:32:20 10° N 05:38:34 45° ENE 05:45:20 10° SE
DELTA 2 R/B(2) 3.3 05:40:48 32° W 05:41:16 41° NW 05:42:52 10° NE
Cosmos 1371 Rocket 4.3 05:37:06 10° S 05:42:24 74° ESE 05:47:44 10° NNE
STARLINK-1170 4.5 05:40:37 18° W 05:42:25 26° NW 05:45:34 10° N
Palapa B4 Rocket 3.9 05:37:00 15° WSW 05:43:13 75° SSE 05:48:01 10° E
Cosmos 1624 Rocket 4.4 05:39:58 10° S 05:45:04 66° ESE 05:50:13 10° NNE
Skynet4D Del rocket 4.3 05:41:07 10° WNW 05:48:04 71° SSW 05:55:59 10° ESE
Okean O Rocket 3.5 05:44:27 10° NE 05:48:28 33° E 05:52:28 10° SSE
SWIFT 2.6 05:47:03 11° WNW 05:51:11 68° NNE 05:55:24 10° E
Meteor 1-31 Rocket 4.4 05:52:53 10° NW 05:55:23 17° WNW 05:57:52 10° WSW
Lacrosse 4 Rocket 1.5 05:58:19 10° SSW 06:02:31 65° WNW 06:06:50 10° NNE
S3M 4.4 05:56:32 10° N 06:02:42 71° E 06:08:47 10° S
EPKM 3.8 06:02:37 10° NW 06:03:50 13° NNW 06:04:56 10° NNE
FUSE 4.4 05:59:02 10° W 06:04:11 51° NNW 06:09:21 10° ENE
Aureole 3 Rocket 2.2 06:01:48 10° NNW 06:05:02 59° W 06:08:00 10° S
